When you browse on this site, cookies collect data to enhance your experience and personalize the content and advertising you see.
Visit our Privacy Policy to learn more. By continuing to use the site, you agree to this use of cookies and data.

Stündliche Wetter Bolshie Koshevniki

Heute, 27 September, Sonntag

Zeit Temperatur Niederschläge Wind Luftdruck Luftfeuchtigkeit
00:00 +16°C° 0 mm 6 m/S 736 mmHg 63%
01:00 +16°C° 0 mm 6 m/S 736 mmHg 63%
02:00 +16°C° 0 mm 6 m/S 736 mmHg 63%
03:00 +16°C° 0 mm 6 m/S 736 mmHg 60%
04:00 +15°C° 0 mm 6 m/S 736 mmHg 56%
05:00 +15°C° 0 mm 7 m/S 736 mmHg 53%
06:00 +15°C° 0 mm 7 m/S 736 mmHg 54%
07:00 +15°C° 0 mm 7 m/S 737 mmHg 54%
08:00 +15°C° 0 mm 8 m/S 737 mmHg 55%
09:00 +16°C° 0 mm 8 m/S 737 mmHg 55%
10:00 +17°C° 0 mm 8 m/S 737 mmHg 54%
11:00 +18°C° 0 mm 8 m/S 737 mmHg 54%
12:00 +18°C° 0 mm 8 m/S 737 mmHg 55%
13:00 +18°C° 0 mm 8 m/S 737 mmHg 57%
14:00 +18°C° 0 mm 8 m/S 737 mmHg 59%
15:00 +17°C° 0.5 mm 8 m/S 737 mmHg 66%
16:00 +16°C° 0.5 mm 7 m/S 737 mmHg 73%
17:00 +15°C° 0.5 mm 7 m/S 737 mmHg 80%
18:00 +15°C° 0.6 mm 7 m/S 737 mmHg 83%
19:00 +14°C° 0.6 mm 7 m/S 737 mmHg 85%
20:00 +14°C° 0.6 mm 6 m/S 738 mmHg 88%
21:00 +13°C° 0.1 mm 6 m/S 738 mmHg 88%
22:00 +13°C° 0.1 mm 5 m/S 739 mmHg 88%
23:00 +13°C° 0.1 mm 4 m/S 739 mmHg 88%

Morgen, 28 September, Montag

Zeit Temperatur Niederschläge Wind Luftdruck Luftfeuchtigkeit
00:00 +12°C° 0 mm 4 m/S 739 mmHg 89%
01:00 +10°C° 0 mm 5 m/S 740 mmHg 89%
02:00 +10°C° 0 mm 5 m/S 740 mmHg 89%
03:00 +9°C° 0.1 mm 5 m/S 740 mmHg 89%
04:00 +10°C° 0.1 mm 4 m/S 741 mmHg 88%
05:00 +10°C° 0.1 mm 4 m/S 741 mmHg 88%
06:00 +10°C° 0 mm 4 m/S 742 mmHg 87%
07:00 +10°C° 0 mm 4 m/S 742 mmHg 86%
08:00 +10°C° 0 mm 4 m/S 742 mmHg 86%
09:00 +11°C° 0 mm 4 m/S 743 mmHg 80%
10:00 +12°C° 0 mm 4 m/S 744 mmHg 75%
11:00 +13°C° 0 mm 4 m/S 744 mmHg 70%
12:00 +14°C° 0 mm 4 m/S 744 mmHg 66%
13:00 +15°C° 0 mm 4 m/S 744 mmHg 62%
14:00 +17°C° 0 mm 4 m/S 744 mmHg 58%
15:00 +16°C° 0 mm 3 m/S 744 mmHg 61%
16:00 +16°C° 0 mm 3 m/S 744 mmHg 65%
17:00 +15°C° 0 mm 2 m/S 744 mmHg 68%
18:00 +14°C° 0 mm 2 m/S 745 mmHg 73%
19:00 +13°C° 0 mm 2 m/S 745 mmHg 78%
20:00 +12°C° 0 mm 2 m/S 745 mmHg 82%
21:00 +10°C° 0 mm 2 m/S 745 mmHg 83%
22:00 +10°C° 0 mm 2 m/S 745 mmHg 84%
23:00 +10°C° 0 mm 2 m/S 745 mmHg 85%

übermorgen, 29 September, Dienstag

Zeit Temperatur Niederschläge Wind Luftdruck Luftfeuchtigkeit
00:00 +10°C° 0 mm 3 m/S 745 mmHg 85%
01:00 +10°C° 0 mm 3 m/S 745 mmHg 85%
02:00 +9°C° 0 mm 3 m/S 745 mmHg 85%
03:00 +9°C° 0 mm 3 m/S 745 mmHg 84%
04:00 +9°C° 0 mm 3 m/S 744 mmHg 83%
05:00 +9°C° 0 mm 3 m/S 744 mmHg 82%
06:00 +10°C° 0 mm 4 m/S 744 mmHg 79%
07:00 +11°C° 0 mm 4 m/S 744 mmHg 76%
08:00 +12°C° 0 mm 4 m/S 744 mmHg 73%
09:00 +13°C° 0 mm 4 m/S 744 mmHg 69%
10:00 +14°C° 0 mm 4 m/S 744 mmHg 65%
11:00 +17°C° 0 mm 4 m/S 744 mmHg 61%
12:00 +17°C° 0 mm 4 m/S 744 mmHg 60%
13:00 +18°C° 0 mm 3 m/S 743 mmHg 58%
14:00 +18°C° 0 mm 3 m/S 743 mmHg 57%
15:00 +18°C° 0 mm 3 m/S 743 mmHg 61%
16:00 +17°C° 0 mm 3 m/S 742 mmHg 65%
17:00 +16°C° 0 mm 3 m/S 742 mmHg 69%
18:00 +14°C° 0 mm 3 m/S 742 mmHg 76%
19:00 +13°C° 0 mm 3 m/S 742 mmHg 82%
20:00 +12°C° 0 mm 4 m/S 742 mmHg 89%
21:00 +12°C° 0 mm 3 m/S 742 mmHg 90%
22:00 +12°C° 0 mm 3 m/S 742 mmHg 91%
23:00 +11°C° 0 mm 3 m/S 742 mmHg 93%

30 September, Mittwoch

Zeit Temperatur Niederschläge Wind Luftdruck Luftfeuchtigkeit
00:00 +11°C° 0 mm 3 m/S 741 mmHg 91%
01:00 +11°C° 0 mm 3 m/S 741 mmHg 90%
02:00 +11°C° 0 mm 4 m/S 741 mmHg 88%
03:00 +11°C° 0 mm 4 m/S 740 mmHg 86%
04:00 +10°C° 0 mm 4 m/S 740 mmHg 83%
05:00 +10°C° 0 mm 4 m/S 740 mmHg 81%
06:00 +10°C° 0 mm 4 m/S 740 mmHg 78%
07:00 +10°C° 0 mm 5 m/S 740 mmHg 75%
08:00 +10°C° 0 mm 5 m/S 740 mmHg 72%
09:00 +12°C° 0 mm 5 m/S 740 mmHg 69%
10:00 +13°C° 0 mm 5 m/S 740 mmHg 65%
11:00 +15°C° 0 mm 5 m/S 740 mmHg 62%
12:00 +15°C° 0 mm 5 m/S 740 mmHg 63%
13:00 +14°C° 0 mm 5 m/S 740 mmHg 64%
14:00 +14°C° 0 mm 5 m/S 740 mmHg 65%
15:00 +14°C° 0 mm 5 m/S 740 mmHg 66%
16:00 +13°C° 0 mm 5 m/S 740 mmHg 67%
17:00 +13°C° 0 mm 4 m/S 739 mmHg 68%
18:00 +13°C° 0 mm 4 m/S 740 mmHg 66%
19:00 +12°C° 0 mm 4 m/S 740 mmHg 65%
20:00 +12°C° 0 mm 4 m/S 740 mmHg 64%
21:00 +12°C° 0 mm 4 m/S 740 mmHg 63%
22:00 +12°C° 0 mm 4 m/S 739 mmHg 62%
23:00 +11°C° 0 mm 4 m/S 739 mmHg 60%

1 Oktober, Donnerstag

Zeit Temperatur Niederschläge Wind Luftdruck Luftfeuchtigkeit
00:00 +11°C° 0 mm 4 m/S 739 mmHg 60%
01:00 +11°C° 0 mm 4 m/S 739 mmHg 60%
02:00 +10°C° 0 mm 4 m/S 739 mmHg 59%
03:00 +9°C° 0 mm 5 m/S 738 mmHg 59%
04:00 +8°C° 0 mm 5 m/S 738 mmHg 59%
05:00 +8°C° 0 mm 5 m/S 738 mmHg 59%
06:00 +8°C° 0 mm 5 m/S 738 mmHg 59%
07:00 +9°C° 0 mm 5 m/S 738 mmHg 59%
08:00 +9°C° 0 mm 6 m/S 738 mmHg 58%
09:00 +10°C° 0 mm 6 m/S 738 mmHg 58%
10:00 +12°C° 0 mm 7 m/S 738 mmHg 57%
11:00 +14°C° 0 mm 7 m/S 738 mmHg 56%
12:00 +14°C° 0 mm 7 m/S 738 mmHg 57%
13:00 +15°C° 0 mm 7 m/S 738 mmHg 57%
14:00 +15°C° 0 mm 7 m/S 738 mmHg 57%
15:00 +15°C° 0 mm 7 m/S 738 mmHg 63%
16:00 +15°C° 0 mm 6 m/S 738 mmHg 68%
17:00 +14°C° 0 mm 6 m/S 738 mmHg 73%
18:00 +14°C° 0 mm 6 m/S 738 mmHg 75%
19:00 +14°C° 0 mm 6 m/S 738 mmHg 76%
20:00 +13°C° 0 mm 6 m/S 739 mmHg 78%
21:00 +13°C° 0 mm 6 m/S 739 mmHg 79%
22:00 +11°C° 0 mm 6 m/S 739 mmHg 80%
23:00 +11°C° 0 mm 6 m/S 739 mmHg 81%

2 Oktober, Freitag

Zeit Temperatur Niederschläge Wind Luftdruck Luftfeuchtigkeit
00:00 +10°C° 0 mm 5 m/S 739 mmHg 83%
01:00 +10°C° 0 mm 5 m/S 739 mmHg 84%
02:00 +9°C° 0 mm 5 m/S 740 mmHg 86%
03:00 +9°C° 0 mm 5 m/S 740 mmHg 84%
04:00 +9°C° 0 mm 5 m/S 740 mmHg 82%
05:00 +8°C° 0 mm 5 m/S 740 mmHg 81%
06:00 +9°C° 0 mm 5 m/S 740 mmHg 77%
07:00 +9°C° 0 mm 6 m/S 740 mmHg 74%
08:00 +10°C° 0 mm 6 m/S 740 mmHg 71%
09:00 +11°C° 0.1 mm 6 m/S 740 mmHg 66%
10:00 +13°C° 0.1 mm 6 m/S 740 mmHg 62%
11:00 +14°C° 0.1 mm 6 m/S 740 mmHg 58%
12:00 +15°C° 0 mm 7 m/S 740 mmHg 60%
13:00 +15°C° 0 mm 7 m/S 740 mmHg 61%
14:00 +16°C° 0 mm 8 m/S 740 mmHg 63%
15:00 +15°C° 0 mm 7 m/S 740 mmHg 65%
16:00 +14°C° 0 mm 7 m/S 740 mmHg 67%
17:00 +12°C° 0 mm 7 m/S 741 mmHg 69%
18:00 +11°C° 0 mm 7 m/S 741 mmHg 69%
19:00 +11°C° 0 mm 7 m/S 741 mmHg 68%
20:00 +10°C° 0 mm 6 m/S 741 mmHg 68%
21:00 +9°C° 0 mm 6 m/S 741 mmHg 73%
22:00 +9°C° 0 mm 6 m/S 741 mmHg 78%
23:00 +9°C° 0 mm 6 m/S 741 mmHg 83%
Mehr zeigen